Location: DARK SKY Beskydy - Park tmavé oblohy, www.darkskybeskydy.cz
(49.4926°N, 18.5016°E)
Time: 10:32:42
(UTC+02:00)

Transit 4A - Pass Details

Date: 25 February 2024
Orbit: 871 x 971 km, 66.8° (Epoch: 24 April)

Event Time Altitude Azimuth Distance (km) Brightness Sun altitude
Exits shadow 05:01:14 10° 315° (NW) 2,595 9.9 -16.4°
Maximum altitude 05:04:41 15° 350° (N) 2,211 9.8 -15.9°
Drops below altitude 10° 05:08:06 10° 26° (NNE) 2,563 10.6 -15.3°
Sets 05:11:45 0° 49° (NE) 3,488 11.8 -14.7°
